Regional Weather Roundup
Issued by NWS

Home | Current Version | Previous Version | Text Only | Print | Product List | Glossary On
Versions: 1 2 3 4 5 6 7 8 9 10 11 12 13 14 15 16 17 18 19 20 21 22 23 24 25 26 27 28 29 30 31 32 33 34 35 36 37 38 39 40 41 42 43 44 45 46 47 48 49 50
000
ASUS43 KTOP 262308
RWRKS

WEATHER ROUNDUP FOR KANSAS
NATIONAL WEATHER SERVICE GOODLAND KS
500 PM CST THU FEB 26 2015

NOTE:  "FAIR" INDICATES FEW OR NO CLOUDS BELOW 12,000 FEET WITH NO
SIGNIFICANT WEATHER AND/OR OBSTRUCTIONS TO VISIBILITY.

KSZ001>006-013>018-027>032-041>047-270000-
NORTHWEST KANSAS

CITY           SKY/WX    TMP DP  RH WIND       PRES   REMARKS
GOODLAND       FLURRIES  18   7  62 E5        30.29S
HAYS           SUNNY     21  -8  27 NE13G20   30.40S WCI   9
HILL CITY      SUNNY     24  -7  25 N14       30.40S WCI  12
RUSSELL        SUNNY     22  -7  27 N15G22    30.41S WCI   9
$$

KSZ061>065-074>080-084>089-270000-
SOUTHWEST KANSAS

CITY           SKY/WX    TMP DP  RH WIND       PRES   REMARKS
DODGE CITY     CLOUDY    22   0  38 NE14      30.35S WCI   9
ELKHART          N/A     19  11  71 NE6         N/A
GARDEN CITY    CLOUDY    21   5  50 NE9       30.33S
GREAT BEND     SUNNY     21  -6  30 NE14G21   30.42R WCI   8
LIBERAL        PTSUNNY   23   9  54 NE10      30.33F WCI  12
PRATT          SUNNY     23  -6  28 N13       30.41R WCI  11
$$

KSZ066>073-081>083-090>101-270000-
SOUTHEAST KANSAS

CITY           SKY/WX    TMP DP  RH WIND       PRES   REMARKS
CHANUTE        SUNNY     25   2  37 N10       30.43R WCI  15
COFFEYVILLE    SUNNY     27   2  34 N15       30.43R WCI  15
HUTCHINSON     SUNNY     23  -5  29 N13       30.43S WCI  11
MEDICINE LODGE   N/A     25  -4  28 NE14      30.41R WCI  13
NEWTON         SUNNY     21  -2  35 N18       30.43S WCI   6
PARSONS        SUNNY     27   2  34 N12       30.44R WCI  17
WICHITA INTL   MOSUNNY   25  -4  28 N16G23    30.42S WCI  12
WICHITA JABRA  SUNNY     22  -4  32 N15       30.43R WCI   9
WICHITA MCCONL SUNNY     24  -3  31 NE21      30.42S WCI   9
WINFIELD       MOSUNNY   25  -3  29 N15       30.43R WCI  13
$$

KSZ007>012-019>026-033>040-048>060-102>105-270000-
NORTHEAST KANSAS

CITY           SKY/WX    TMP DP  RH WIND       PRES   REMARKS
CONCORDIA      SUNNY     19  -4  36 N13       30.46S WCI   6
EMPORIA        SUNNY     21  -1  38 N15G25    30.43R WCI   8
LAWRENCE       SUNNY     20   0  41 N16       30.48R WCI   6
MANHATTAN      SUNNY     20   0  41 N7        30.48S
MARYSVILLE     SUNNY     18   1  49 N17       30.47S WCI   2
OLATHE IND     SUNNY     19   0  43 N15       30.45R WCI   5
OLATHE EXE     SUNNY     20  -2  38 N14       30.42R WCI   7
SALINA         SUNNY     23  -5  29 N17       30.46S WCI   9
TOPEKA BILLARD MOSUNNY   19  -1  41 N14       30.49R WCI   6
TOPEKA FORBES  SUNNY     21  -1  38 N13       30.45R WCI   9
$$


USA.gov is the U.S. government's official web portal to all federal, state and local government web resources and services.